Roda de Ter - l'Esquerda





Hora UTC 09:45
Temperatura 14.7 ºC
Humitat 54.0 %
Pressió 1018.7 hPa
Pluja 0.0 mm
Velocitat vent 1.6 km/h
Direcció vent N

Dades diàries 2021-04-19



Hora UTC (hivern +1h; estiu +2h)
Temperatura (ºC) Humitat (%) Pressió (hPa) Velocitat vent (km/h) Precipitació (mm)
Hora UTC Aire Humitat Pressió Vel. Dir. Vel. Max Dir. Intent. màx 5 min.
00:05 2.4 89.0 1021.2 1.6 NE 1.6 0.0
00:10 2.4 88.0 1021.3 0.0 NE 3.2 0.0
00:15 2.4 88.0 1021.2 1.6 NE 1.6 0.0
00:20 2.3 88.0 1021.1 1.6 NE 3.2 0.0
00:25 2.5 88.0 1021.1 1.6 NE 3.2 0.0
00:30 2.3 88.0 1021.2 0.0 NE 3.2 0.0
00:35 2.4 88.0 1021.0 0.0 NE 1.6 0.0
00:40 2.4 88.0 1021.0 0.0 NE 1.6 0.0
00:45 2.4 88.0 1020.9 0.0 NE 1.6 0.0
00:50 2.4 88.0 1021.0 1.6 NE 1.6 0.0
00:55 2.4 88.0 1020.9 1.6 NE 1.6 0.0
01:00 2.5 88.0 1020.7 1.6 NE 3.2 0.0
01:05 2.6 88.0 1020.6 1.6 NE 3.2 0.0
01:10 2.6 89.0 1020.7 0.0 NE 1.6 0.0
01:15 2.4 88.0 1020.7 0.0 NE 1.6 0.0
01:20 2.3 88.0 1020.7 0.0 NE 0.0 0.0
01:25 2.2 89.0 1020.7 1.6 NE 3.2 0.0
01:30 2.0 89.0 1020.8 1.6 NE 3.2 0.0
01:35 1.9 89.0 1020.7 0.0 NE 1.6 0.0
01:40 1.9 89.0 1020.6 0.0 NE 1.6 0.0
01:45 1.9 89.0 1020.8 0.0 NE 3.2 0.0
01:50 2.1 89.0 1020.7 0.0 NE 3.2 0.0
01:55 2.2 89.0 1020.6 0.0 NE 1.6 0.0
02:00 2.3 89.0 1020.7 0.0 NE 1.6 0.0
02:05 2.2 89.0 1020.7 0.0 NE 1.6 0.0
02:10 2.2 89.0 1020.7 1.6 NE 3.2 0.0
02:15 2.2 89.0 1020.6 1.6 NE 3.2 0.0
02:20 2.2 90.0 1020.5 0.0 NE 3.2 0.0
02:25 2.2 90.0 1020.5 0.0 NE 3.2 0.0
02:30 2.1 89.0 1020.5 0.0 NE 3.2 0.0
02:35 2.1 90.0 1020.5 0.0 NE 3.2 0.0
02:40 2.0 90.0 1020.5 0.0 NE 3.2 0.0
02:45 1.8 89.0 1020.5 0.0 NE 0.0 0.0
02:50 1.9 90.0 1020.5 0.0 NE 0.0 0.0
02:55 1.7 90.0 1020.5 0.0 NE 0.0 0.0
03:00 1.6 90.0 1020.4 0.0 NE 0.0 0.0
03:05 1.7 90.0 1020.4 0.0 NE 1.6 0.0
03:10 1.8 90.0 1020.4 0.0 NE 1.6 0.0
03:15 1.7 90.0 1020.4 0.0 NE 1.6 0.0
03:20 1.7 90.0 1020.2 1.6 NE 1.6 0.0
03:25 1.7 90.0 1020.2 0.0 NE 1.6 0.0
03:30 1.5 90.0 1020.3 0.0 NE 1.6 0.0
03:35 1.5 90.0 1020.2 0.0 NE 0.0 0.0
03:40 1.7 90.0 1020.1 0.0 NE 3.2 0.0
03:45 1.7 90.0 1020.1 0.0 NE 3.2 0.0
03:50 1.7 90.0 1020.0 0.0 NE 1.6 0.0
03:55 1.6 90.0 1020.0 0.0 NE 1.6 0.0
04:00 1.6 90.0 1020.1 0.0 NE 1.6 0.0
04:05 1.6 90.0 1020.2 0.0 NE 1.6 0.0
04:10 1.4 90.0 1020.0 0.0 NE 1.6 0.0
04:15 1.4 91.0 1020.0 0.0 NE 1.6 0.0
04:20 1.4 90.0 1020.0 0.0 NE 0.0 0.0
04:25 1.5 91.0 1019.9 1.6 NE 1.6 0.0
04:30 1.5 91.0 1019.9 0.0 NE 1.6 0.0
04:35 1.5 91.0 1019.9 0.0 NE 1.6 0.0
04:40 1.3 90.0 1019.8 1.6 NE 1.6 0.0
04:45 1.3 91.0 1019.9 0.0 NE 1.6 0.0
04:50 1.3 91.0 1019.9 0.0 NE 1.6 0.0
04:55 1.3 91.0 1019.9 0.0 NE 1.6 0.0
05:00 1.3 91.0 1019.8 0.0 NE 1.6 0.0
05:05 1.3 91.0 1019.8 0.0 NE 1.6 0.0
05:10 1.1 91.0 1019.9 0.0 NE 1.6 0.0
05:15 1.2 91.0 1020.0 0.0 NE 1.6 0.0
05:20 1.2 91.0 1020.0 0.0 NE 0.0 0.0
05:25 1.1 91.0 1020.0 0.0 NE 0.0 0.0
05:30 1.1 91.0 1020.0 1.6 NE 1.6 0.0
05:35 0.9 91.0 1020.0 0.0 NE 1.6 0.0
05:40 0.9 91.0 1020.0 3.2 NE 3.2 0.0
05:45 1.2 91.0 1020.0 0.0 NE 3.2 0.0
05:50 1.3 91.0 1020.1 1.6 NE 3.2 0.0
05:55 1.3 91.0 1020.1 0.0 NE 3.2 0.0
06:00 1.6 91.0 1020.1 0.0 NE 1.6 0.0
06:05 1.6 91.0 1020.0 0.0 NE 3.2 0.0
06:10 1.6 91.0 1020.0 0.0 NE 3.2 0.0
06:15 1.6 91.0 1020.1 0.0 NE 1.6 0.0
06:20 1.3 91.0 1020.2 0.0 NE 1.6 0.0
06:25 1.4 91.0 1020.3 0.0 NE 0.0 0.0
06:30 1.6 91.0 1020.2 0.0 NE 0.0 0.0
06:35 1.8 91.0 1020.2 1.6 NE 1.6 0.0
06:40 2.1 92.0 1020.3 1.6 NE 3.2 0.0
06:45 2.3 92.0 1020.2 1.6 NE 3.2 0.0
06:50 2.4 92.0 1020.3 1.6 NE 3.2 0.0
06:55 2.8 92.0 1020.3 0.0 NE 3.2 0.0
07:00 3.1 92.0 1020.3 0.0 NE 3.2 0.0
07:05 2.9 92.0 1020.2 0.0 NE 3.2 0.0
07:10 3.1 92.0 1020.3 0.0 NE 3.2 0.0
07:15 3.3 91.0 1020.2 1.6 NE 3.2 0.0
07:20 3.8 91.0 1020.1 1.6 NE 3.2 0.0
07:25 4.3 91.0 1020.0 1.6 NE 3.2 0.0
07:30 4.6 89.0 1020.0 1.6 SE 3.2 0.0
07:35 5.1 89.0 1019.9 1.6 SE 3.2 0.0
07:40 5.4 87.0 1019.9 1.6 S 4.8 0.0
07:45 5.2 84.0 1019.8 3.2 S 4.8 0.0
07:50 5.7 85.0 1019.7 1.6 S 3.2 0.0
07:55 6.1 82.0 1019.6 1.6 N 3.2 0.0
08:00 6.4 80.0 1019.5 0.0 N 4.8 0.0
08:05 6.7 78.0 1019.6 0.0 N 4.8 0.0
08:10 7.3 76.0 1019.5 3.2 N 4.8 0.0
08:15 7.6 76.0 1019.4 1.6 N 4.8 0.0
08:20 7.8 74.0 1019.3 0.0 N 4.8 0.0
08:25 8.6 76.0 1019.3 3.2 N 4.8 0.0
08:30 9.1 71.0 1019.2 1.6 N 4.8 0.0
08:35 9.4 70.0 1019.2 3.2 N 4.8 0.0
08:40 9.6 70.0 1019.2 3.2 N 4.8 0.0
08:45 9.4 69.0 1019.2 1.6 N 4.8 0.0
08:50 9.8 70.0 1019.1 3.2 N 6.4 0.0
08:55 10.8 68.0 1019.1 1.6 N 6.4 0.0
09:00 11.3 68.0 1019.1 3.2 N 4.8 0.0
09:05 11.9 68.0 1019.1 3.2 N 6.4 0.0
09:10 12.4 65.0 1018.9 3.2 N 6.4 0.0
09:15 12.9 64.0 1018.8 3.2 N 6.4 0.0
09:20 13.3 61.0 1018.8 6.4 N 14.5 0.0
09:25 14.1 60.0 1018.7 1.6 N 14.5 0.0
09:30 14.3 54.0 1018.7 3.2 N 12.9 0.0
09:35 14.7 54.0 1018.6 3.2 N 12.9 0.0
09:40 15.0 54.0 1018.6 9.7 N 12.9 0.0
09:45 14.7 54.0 1018.7 1.6 N 12.9 0.0
Màxima 15.0 92.0 1021.3 9.7 N 14.5 0.0
Mínima 0.9 54.0 1018.6
Total 0.0